Location: Korczew
(51.3586°N, 19.4491°E)
Time: 21:29:24
(UTC+00:00)

Cosmos-2242 - Pass Details

Date: 19 May 2025
Orbit: 569 x 594 km, 82.5° (Epoch: 16 June)

Event Time Altitude Azimuth Distance (km) Brightness Sun altitude
Exits shadow 19:51:12 - 188° (S) 2,539 5.8 -9.8°
Reaches altitude 10° 19:52:42 10° 188° (S) 1,928 5.2 -10.0°
Maximum altitude 19:56:58 87° 103° (ESE) 603 3.0 -10.4°
Drops below altitude 10° 20:01:16 10° 11° (N) 1,938 6.2 -10.8°
Sets 20:03:29 0° 11° (N) 2,842 7.1 -11.0°
